Lapse_Rate
8.7 8.9 9.3 9.5 9.5 9.7 9.6 8.8 7.8 7.6 7.5 7.2 7.7 8.3 6.4 5.6 6.1 6.5 5.4 6.2 6.0 6.6 7.1 7.1 7.7 7.7 7.6 7.8 8.0 8.3 9.2 9.1
9.1 9.2 9.3 9.5 9.5 9.5 9.4 8.9 7.7 7.6 7.5 8.5 8.5 6.7 5.9 5.7 5.6 5.6 5.3 4.2 5.5 7.0 7.7 7.1 7.2 8.2 7.9 7.6 8.1 8.1 9.5 9.1
8.8 9.1 9.1 9.2 9.2 9.3 9.4 9.3 8.2 8.0 9.6 9.6 9.5 8.5 5.8 6.3 7.1 5.1 5.4 5.3 6.0 6.8 7.2 7.3 7.5 7.9 7.3 7.6 8.3 9.4 9.6 9.5
8.5 8.8 8.9 9.1 9.2 9.2 9.5 9.6 9.6 9.3 9.7 9.9 9.6 9.1 6.8 6.7 6.8 5.2 5.2 4.7 5.9 7.2 7.1 7.5 7.1 7.9 8.3 7.9 8.2 8.9 9.3 9.6
8.7 8.8 9.0 9.0 9.2 9.5 9.6 9.7 9.6 9.4 9.3 9.4 7.5 8.8 8.7 8.5 6.8 6.2 5.8 5.4 6.8 7.2 7.2 7.2 7.5 8.2 8.0 8.1 8.2 8.8 8.9 9.3
8.6 8.8 8.9 9.2 9.3 9.3 9.4 9.5 9.4 9.3 8.1 7.9 8.6 9.1 9.1 6.1 3.3 3.9 6.0 6.2 6.8 7.4 7.2 7.4 7.8 8.1 7.8 7.4 7.9 8.1 9.5 9.4
8.6 8.8 9.0 9.0 9.2 9.1 8.8 8.9 9.1 8.2 6.9 7.0 7.3 8.6 6.2 5.1 3.6 3.9 7.0 7.9 7.2 6.9 7.7 7.6 7.5 6.9 7.1 7.7 6.2 5.8 7.5 9.1
8.5 8.7 8.8 8.8 8.8 8.3 7.8 8.1 8.9 8.8 6.7 6.5 5.8 6.1 5.7 5.9 5.4 5.8 9.3 8.9 7.3 7.2 7.4 7.3 7.0 7.0 4.8 3.1 3.8 8.7 8.7 9.6
8.5 8.6 8.7 8.8 8.5 6.2 5.9 6.2 7.3 7.2 5.9 5.4 5.6 6.6 6.5 6.3 6.1 7.5 9.0 8.5 9.0 8.9 7.5 7.8 7.3 2.6 2.4 3.1 6.6 8.9 9.7 9.3
8.4 8.6 8.7 8.8 8.6 5.8 5.3 6.0 7.3 6.2 4.5 5.2 5.6 5.8 5.9 6.1 6.5 7.9 9.3 9.7 9.9 7.8 7.8 6.0 3.0 2.2 3.0 4.8 8.5 9.8 9.5 9.6
8.4 8.7 8.7 8.9 9.0 9.0 6.4 7.5 6.7 6.3 5.6 5.3 4.9 5.9 6.2 5.2 6.7 8.0 9.2 9.3 7.7 6.9 5.1 3.7 2.7 2.5 5.1 7.3 9.4 9.9 9.7 9.7
8.2 8.5 8.7 8.9 9.1 9.1 8.5 7.9 8.7 9.0 6.2 5.5 5.7 7.0 5.7 5.6 6.5 6.7 6.9 7.0 5.5 4.7 3.7 3.3 5.8 6.9 7.9 8.4 9.8 9.8 9.7 9.7
8.3 8.4 8.6 8.7 8.8 9.0 9.0 8.7 8.7 8.7 8.4 7.0 6.7 5.3 4.5 3.2 3.8 4.6 4.6 4.9 4.1 3.5 3.5 6.3 7.6 8.9 8.9 9.5 9.6 9.8 9.7 9.6
8.2 8.3 8.4 8.6 8.8 8.8 9.0 8.9 8.2 6.1 6.5 4.2 1.8 2.1 2.8 2.9 2.5 2.7 2.8 3.5 4.3 4.4 6.6 7.8 8.3 8.8 9.6 9.9 9.9 9.8 9.8 9.8
8.3 8.3 8.5 8.6 8.8 8.9 9.0 8.8 7.5 4.3 4.9 2.4 2.7 2.6 1.3 1.7 1.6 3.3 2.6 2.7 4.0 5.4 6.4 7.8 8.0 9.2 9.8 9.8 9.9 9.8 9.8 9.9
8.1 8.3 8.5 8.7 8.7 8.8 8.7 5.5 3.0 3.7 4.3 3.5 3.0 3.1 1.9 1.5 1.7 1.8 3.3 5.5 5.0 4.5 8.7 8.4 8.8 9.4 9.8 9.8 9.9 9.8 9.8 9.7
8.0 8.3 8.4 8.4 8.5 8.5 6.6 4.1 4.8 5.6 5.6 4.5 3.6 2.4 2.3 1.6 1.8 3.0 4.4 4.6 6.0 9.0 8.7 9.7 9.5 9.7 6.0 4.2 4.6 8.7 9.7 9.7
7.9 8.2 8.3 8.5 8.4 7.3 6.4 5.6 5.8 5.2 4.4 3.9 3.8 3.0 2.7 4.2 5.3 5.7 5.9 7.8 9.1 8.9 9.4 8.7 9.1 9.7 4.9 3.7 3.5 7.8 9.3 9.7
8.1 8.4 8.6 8.7 8.5 8.6 7.7 8.2 7.8 5.8 5.9 5.2 5.3 4.7 4.6 5.9 8.1 7.7 8.2 9.2 8.9 9.6 9.5 9.7 9.6 9.7 5.1 3.9 3.7 7.8 9.4 9.8
Wind_Speed
14 17 18 17 20 20 16 10 9 10 8 9 10 8 7 8 10 10 12 14 15 14 13 15 12 9 6 6 4 3 2 2
17 17 17 18 19 18 15 11 9 8 8 9 8 7 7 5 8 11 14 14 16 15 13 13 11 6 7 7 5 3 2 0
19 19 19 20 19 17 15 14 12 11 9 9 7 8 6 7 10 12 13 15 15 14 14 12 12 7 7 6 4 2 1 1
19 21 21 20 20 19 18 15 15 14 12 9 6 7 7 7 7 7 11 14 15 13 15 13 12 9 7 6 4 3 3 3
20 21 22 22 21 19 18 16 14 13 14 10 13 9 8 7 7 6 10 13 14 15 15 13 12 9 7 6 6 3 4 4
22 24 23 19 19 17 15 15 14 15 15 14 11 10 7 6 5 6 9 12 15 15 14 13 11 9 6 5 5 6 4 4
21 21 20 20 18 17 15 17 16 16 15 16 15 14 12 10 9 8 10 9 11 16 16 14 11 10 9 6 5 5 5 4
20 21 19 19 20 19 17 18 18 17 17 16 13 14 15 15 13 10 13 10 10 12 15 12 11 12 10 9 5 8 5 5
20 21 19 18 19 19 19 19 18 18 17 17 16 16 11 11 12 11 11 10 10 14 14 13 13 10 8 8 9 8 7 5
18 19 18 19 19 20 20 19 18 16 16 13 15 14 14 13 13 13 10 11 8 13 15 14 11 10 10 12 7 8 6 6
11 14 17 17 18 18 18 18 18 17 16 14 12 15 15 11 9 11 11 9 11 13 12 8 7 9 14 12 8 8 7 6
8 10 12 14 14 15 16 16 16 14 13 12 12 11 10 8 8 9 10 11 11 11 7 6 8 10 10 9 9 8 9 9
6 8 10 12 14 14 15 13 12 10 9 8 6 5 8 8 7 8 9 7 7 7 6 7 8 8 8 9 10 9 10 11
7 8 9 10 12 13 13 12 10 9 8 10 11 11 11 9 8 8 7 7 5 3 6 8 7 7 8 9 10 10 11 12
7 9 9 10 11 11 11 10 8 11 11 11 11 11 14 13 12 7 8 6 6 4 5 7 6 7 8 9 9 10 11 12
7 9 9 9 10 11 10 10 11 12 13 13 13 14 13 11 9 9 11 9 5 7 9 6 6 7 6 8 8 10 11 12
5 7 8 10 11 12 12 12 13 14 14 14 14 14 12 11 9 12 8 6 9 6 6 8 7 6 6 4 7 10 12 13
2 6 8 9 11 13 13 14 14 13 15 15 14 13 12 12 10 10 8 8 5 8 7 6 8 9 8 8 8 10 12 14
6 6 8 9 11 12 13 13 14 14 15 14 14 13 10 9 10 7 5 6 5 5 5 6 7 7 5 9 10 12 13 15
Wind_Direction
165 180 175 174 172 182 190 204 202 172 163 167 173 168 165 164 177 181 173 175 170 165 155 155 155 145 144 137 137 109 52 12
170 173 173 177 183 191 201 205 197 174 179 183 172 175 174 170 182 179 175 173 176 170 157 158 158 159 146 146 142 151 149 318
180 183 185 191 193 203 205 208 197 196 192 188 187 174 185 191 180 175 184 176 176 172 164 166 169 149 151 155 174 169 262 278
197 198 199 199 205 204 210 211 204 206 198 188 184 164 167 181 185 169 185 177 178 177 176 171 165 163 164 165 175 228 276 202
197 201 205 207 210 211 215 220 215 205 201 188 193 194 192 190 177 173 180 181 183 184 180 171 169 170 167 171 187 223 250 276
205 204 208 207 207 213 214 212 208 197 196 203 199 206 194 174 131 164 196 189 190 188 183 177 175 179 158 146 188 209 217 279
208 209 206 208 204 206 204 205 204 197 200 201 200 197 182 178 168 182 200 197 190 192 188 184 171 157 151 172 200 229 233 247
212 207 204 204 196 199 199 201 204 201 201 200 203 199 187 190 182 191 203 198 194 189 187 179 168 151 149 142 200 236 234 248
217 215 204 204 197 196 196 197 202 199 200 201 202 203 201 198 190 199 208 205 200 182 184 178 152 118 140 192 214 227 226 239
216 213 209 204 197 198 198 198 202 199 199 202 206 205 203 201 199 206 207 206 184 170 173 155 146 154 176 203 220 225 230 235
208 212 207 206 201 200 200 203 196 198 198 203 207 206 208 201 204 196 196 174 168 164 159 146 146 172 198 206 223 227 239 245
206 206 205 206 203 202 202 204 200 195 194 204 204 210 200 202 185 181 173 164 151 164 148 162 205 194 202 216 237 251 243 256
199 197 194 195 197 199 201 199 199 194 191 185 177 101 99 108 133 143 127 126 146 143 164 196 202 202 212 231 246 253 255 262
193 191 192 194 193 198 195 191 182 173 166 143 134 131 129 129 110 107 96 125 134 169 191 192 196 223 238 249 258 264 264 265
214 198 192 186 187 184 189 168 153 143 153 150 144 142 124 119 117 91 101 118 140 154 216 210 224 245 258 262 264 265 267 268
226 211 188 175 169 165 156 146 138 141 142 137 128 126 120 118 111 118 136 156 147 197 214 220 247 255 254 261 271 272 273 274
248 199 176 161 157 153 144 140 142 148 142 136 132 125 116 115 128 137 139 151 206 205 236 257 250 248 125 238 265 278 282 279
206 176 163 152 148 143 144 144 140 136 131 129 128 123 124 139 144 131 152 195 227 255 257 238 246 259 170 240 254 275 280 279
106 116 124 126 131 128 134 136 133 132 129 125 126 125 127 124 131 155 199 239 237 241 247 254 262 267 196 249 260 275 278 279